GW5068 Weather Reports


time (UTC)temp
F
wind
direction
speed
knots
gust
knots
rain 1hr
in
rain 24hr
in
rain mn
in
humidity
%
barometer
mb
20260906220022 81 196 2.6 7.8 0.00 0.00 0.00 40 1001.9
20260906214601 82 163 2.6 8.7 0.00 0.00 0.00 39 1002.2
20260906213039 82 192 2.6 7.0 0.00 0.00 0.00 39 1002.3
20260906211514 83 146 2.6 10.4 0.00 0.00 0.00 38 1002.4
20260906210053 84 262 3.5 10.4 0.00 0.00 0.00 38 1002.6
20260906204529 84 153 2.6 9.6 0.00 0.00 0.00 37 1002.7
20260906203014 85 124 2.6 9.6 0.00 0.00 0.00 35 1002.9
20260906201545 85 181 2.6 7.8 0.00 0.00 0.00 34 1003.1
20260906200022 85 160 3.5 7.8 0.00 0.00 0.00 35 1003.3
20260906194556 85 170 1.7 6.1 0.00 0.00 0.00 35 1003.5
20260906193033 85 176 2.6 9.6 0.00 0.00 0.00 35 1003.7
20260906191510 85 147 2.6 7.8 0.00 0.00 0.00 36 1003.9
20260906190104 84 179 2.6 7.0 0.00 0.00 0.00 37 1004.1
20260906184525 85 169 2.6 7.8 0.00 0.00 0.00 35 1004.3
20260906183111 84 169 1.7 8.7 0.00 0.00 0.00 35 1004.8
20260906181542 84 144 1.7 6.1 0.00 0.00 0.00 35 1005.0
20260906180021 84 99 1.7 5.2 0.00 0.00 0.00 34 1005.2
20260906174559 83 162 1.7 5.2 0.00 0.00 0.00 35 1005.5
20260906173039 83 148 0.9 4.3 0.00 0.00 0.00 33 1005.8
20260906171513 82 217 1.7 7.0 0.00 0.00 0.00 36 1006.0
20260906170117 79 146 0.9 3.5 0.00 0.00 0.00 40 1006.3
20260906164535 78 158 1.7 4.3 0.00 0.00 0.00 40 1006.4
20260906163014 77 101 0.9 2.6 0.00 0.00 0.00 38 1006.7
20260906161555 75 120 0.9 3.5 0.00 0.00 0.00 42 1006.8
20260906160036 74 85 0.9 3.5 0.00 0.00 0.00 44 1006.7
20260906154521 73 36 0.9 3.5 0.00 0.00 0.00 43 1006.7
20260906153058 71 121 0.0 3.5 0.00 0.00 0.00 47 1006.6
20260906151605 70 73 2.6 6.1 0.00 0.00 0.00 50 1006.5
20260906150032 69 2 3.5 6.1 0.00 0.00 0.00 52 1006.5
20260906144520 67 32 2.6 6.1 0.00 0.00 0.00 54 1006.5
20260906143128 67 18 3.5 5.2 0.00 0.00 0.00 54 1006.5
20260906141541 66 39 3.5 6.1 0.00 0.00 0.00 54 1006.5
20260906140021 65 5 3.5 7.0 0.00 0.00 0.00 54 1006.4
20260906134502 66 23 0.0 0.9 0.00 0.00 0.00 56 1006.3
20260906133046 63 27 0.9 5.2 0.00 0.00 0.00 56 1006.2
20260906131531 62 31 3.5 6.1 0.00 0.00 0.00 56 1006.0
20260906130021 62 38 3.5 5.2 0.00 0.00 0.00 56 1006.2
20260906124601 62 14 2.6 4.3 0.00 0.00 0.00 56 1006.2
20260906123112 62 33 2.6 4.3 0.00 0.00 0.00 54 1006.0
20260906121527 62 21 2.6 4.3 0.00 0.00 0.00 55 1006.0
20260906120008 62 356 2.6 5.2 0.00 0.00 0.00 54 1006.1
20260906114559 62 27 1.7 4.3 0.00 0.00 0.00 54 1006.1
20260906113041 61 21 1.7 4.3 0.00 0.00 0.00 56 1006.0
20260906111527 61 18 1.7 3.5 0.00 0.00 0.00 57 1006.1
20260906110003 62 30 2.6 3.5 0.00 0.00 0.00 55 1006.0
20260906104549 62 25 1.7 3.5 0.00 0.00 0.00 54 1006.0
20260906103033 61 8 1.7 1.7 0.00 0.00 0.00 57 1006.0
20260906101517 62 11 0.0 0.9 0.00 0.00 0.00 54 1006.2
20260906094547 61 13 0.9 0.9 0.00 0.00 0.00 58 1006.4
20260906093028 60 13 0.9 1.7 0.00 0.00 0.00 60 1006.3
20260906091515 61 11 1.7 2.6 0.00 0.00 0.00 60 1006.0
20260906084548 61 14 0.0 1.7 0.00 0.00 0.00 61 1006.0
20260906083034 61 14 0.0 0.9 0.00 0.00 0.00 67 1005.9
20260906081513 61 14 0.0 0.9 0.00 0.00 0.00 66 1006.1
20260906074549 61 15 0.0 0.9 0.00 0.00 0.00 68 1006.0
20260906073030 62 20 0.0 0.9 0.00 0.00 0.00 69 1006.2
20260906071516 62 20 0.0 0.9 0.00 0.00 0.00 68 1006.2
20260906070003 63 20 0.0 1.7 0.00 0.00 0.00 68 1005.9
20260906064552 64 28 0.9 1.7 0.00 0.00 0.00 67 1006.4
20260906063101 65 37 2.6 5.2 0.00 0.00 0.00 65 1006.1
20260906061543 64 37 1.7 6.1 0.00 0.00 0.00 66 1006.0
20260906060030 63 8 1.7 2.6 0.00 0.00 0.00 70 1005.8
20260906054518 64 20 0.0 3.5 0.00 0.00 0.00 69 1006.0
20260906053006 64 347 0.9 0.9 0.00 0.00 0.00 71 1005.9
20260906051601 63 269 0.0 0.0 0.00 0.00 0.00 70 1005.9
20260906050048 63 269 0.0 0.0 0.00 0.00 0.00 71 1005.9
20260906044533 62 269 0.0 0.9 0.00 0.00 0.00 70 1006.0
20260906043028 63 269 0.0 0.9 0.00 0.00 0.00 70 1006.0
20260906041507 63 269 0.0 0.0 0.00 0.00 0.00 68 1006.2
20260906040056 63 269 0.0 0.9 0.00 0.00 0.00 68 1006.2
20260906034546 64 269 0.0 0.9 0.00 0.00 0.00 65 1006.2
20260906033039 64 269 0.0 0.9 0.00 0.00 0.00 61 1006.2
20260906031524 66 269 0.0 0.9 0.00 0.00 0.00 56 1006.2
20260906030019 68 269 0.0 2.6 0.00 0.00 0.00 55 1006.0
20260906024550 67 214 0.0 2.6 0.00 0.00 0.00 55 1005.9
20260906023048 68 13 0.0 0.9 0.00 0.00 0.00 44 1005.2
20260906021527 69 13 0.9 1.7 0.00 0.00 0.00 44 1004.9
20260906020014 69 14 0.9 1.7 0.00 0.00 0.00 45 1004.7
20260906014505 70 14 0.0 0.9 0.00 0.00 0.00 43 1004.4
20260906013107 69 14 0.9 0.9 0.00 0.00 0.00 44 1004.4
20260906011559 69 15 0.9 1.7 0.00 0.00 0.00 46 1004.3
20260906010039 71 15 0.9 1.7 0.00 0.00 0.00 44 1004.4
20260906004521 73 15 0.0 2.6 0.00 0.00 0.00 49 1004.5
20260906003010 74 130 0.0 2.6 0.00 0.00 0.00 39 1004.9
20260906001602 74 114 0.0 1.7 0.00 0.00 0.00 36 1004.6
20260906000057 75 103 0.0 5.2 0.00 0.00 0.00 36 1004.5
20260905234545 75 162 0.0 3.5 0.00 0.00 0.00 39 1004.4
20260905233040 76 169 0.0 0.0 0.00 0.00 0.00 41 1004.3
20260905231527 77 169 0.0 0.0 0.00 0.00 0.00 37 1004.2
20260905230018 77 169 0.0 0.0 0.00 0.00 0.00 38 1004.3
20260905224510 77 169 0.0 1.7 0.00 0.00 0.00 35 1004.4
20260905223006 77 170 0.0 1.7 0.00 0.00 0.00 36 1004.4
20260905221556 78 209 0.9 5.2 0.00 0.00 0.00 35 1004.6